Regional Weather Roundup
Issued by NWS State College, PA

Home | Current Version | Previous Version | Text Only | Print | Product List | Glossary Off
Versions: 1 2 3 4 5 6 7 8 9 10 11 12 13 14 15 16 17 18 19 20 21 22 23 24 25 26 27 28 29 30 31 32 33 34 35 36 37 38 39 40 41 42 43 44 45 46 47 48 49 50

000
ASUS41 KCTP 010510
RWRCTP

REGIONAL WEATHER ROUNDUP
NATIONAL WEATHER SERVICE STATE COLLEGE PA
1200 AM EST SUN FEB 01 2015

Note: "fair" indicates few or no clouds below 12,000 feet with no
significant weather and/or obstructions to visibility.

* = STATION THAT DOES NOT REPORT PRECIPITATION /E.G. RAIN...SNOW...ETC/
    THUNDER OR FOG.

PAZ002>004-007>009-013>016-020>023-029>032-010600-
WESTERN PENNSYLVANIA

CITY           SKY/WX    TMP DP  RH WIND       PRES   REMARKS
ERIE           CLOUDY    28  17  63 SW9       30.19S
MEADVILLE      CLOUDY    25  16  68 SW5       30.15F
FRANKLIN*      CLOUDY    23  14  68 SW7       30.17F WCI  15
NEW CASTLE     CLOUDY    27  17  65 CALM      30.21S
BEAVER COUNTY  NOT AVBL
BUTLER*        CLOUDY    27  18  69 SW7       30.20S
PITTSBURGH INT CLOUDY    28  17  63 SW9       30.19F
PITTSBURGH     CLOUDY    26  14  60 SW8       30.19F
INDIANA*       CLOUDY    18  14  86 CALM      30.22S
LATROBE        CLOUDY    27  18  69 S10       30.22F
WASHINGTON CO* MOCLDY    23  16  74 SW5       30.22S
$$

PAZ004>006-010>012-017>019-024>028-033>037-041-042-045-046-049>053-010600-
CENTRAL PENNSYLVANIA

CITY           SKY/WX    TMP DP  RH WIND       PRES   REMARKS
BRADFORD       CLOUDY    20  12  71 W6        30.09F WCI  12
DUBOIS         CLOUDY    19  13  77 W9        30.13S WCI   8
CLEARFIELD     CLOUDY    14   9  80 S3        30.16S
JOHNSTOWN      CLOUDY    23  12  62 W15       30.11S WCI  10
ALTOONA        PTCLDY    15   7  70 S7        30.17S WCI   5
STATE COLLEGE  MOCLDY    17  11  74 S3        30.18S
WILLIAMSPORT   CLOUDY    16   8  71 CALM      30.21S
SELINSGROVE    PTCLDY     6   2  83 CALM      30.23S
FT INDIANTOWN  PTCLDY    21   8  57 W3        30.23R
CAPITAL CITY   PTCLDY    13   6  74 SW3       30.25R
HARRISBURG     PTCLDY    11   7  84 CALM      30.25R
YORK           PTCLDY     7   4  87 CALM      30.24R
$$

PAZ038>040-043-044-047-048-054-055-060>062-067>071-010600-
EASTERN PENNSYLVANIA

CITY           SKY/WX    TMP DP  RH WIND       PRES   REMARKS
SCRANTON       PTCLDY     9   3  77 CALM      30.15F
MOUNT POCONO   PTCLDY    10   2  69 NW9       30.05F WCI  -3
ALLENTOWN      CLEAR     11   3  70 CALM      30.21R
QUAKERTOWN*    CLEAR     14   7  73 CALM      30.21S
READING        CLEAR     22   7  52 CALM      30.23R
LANCASTER      CLEAR     17   5  59 CALM      30.24R
COATESVILLE    CLEAR     19  10  68 W3        30.23R
POTTSTOWN      CLEAR     17   7  64 CALM      30.24R
BLUE BELL      CLEAR     25  10  54 CALM      30.22S
DOYLESTOWN     CLEAR     16   7  67 W3        30.21S
WILLOW GROVE   NOT AVBL
NORTH PHILA    CLEAR     24   6  46 W5        30.26R
PHILADELPHIA   PTCLDY    23  10  57 W10       30.27R WCI  12
$$


USA.gov is the U.S. government's official web portal to all federal, state and local government web resources and services.